This is the latest recevied weather packets stored in our database for station/object DC4AT. If no packets are shown the sender has not sent any weather packets the latest 10 day(s).
| Time | Temp. | Humidity | Pressure | Rain* | Wind** | Luminosity | Snow |
|---|---|---|---|---|---|---|---|
| 1787662664 | 23.89° C | 42% | 1015.3 hPa | 0 mm | - | 647 W/m² | - |
| 1787662064 | 23.89° C | 43% | 1015.4 hPa | 0 mm | - | 633 W/m² | - |
| 1787661464 | 23.33° C | 42% | 1015.4 hPa | 0 mm | - | 615 W/m² | - |
| 1787660864 | 23.89° C | 44% | 1015.4 hPa | 0 mm | - | 536 W/m² | - |
| 1787660264 | 23.33° C | 45% | 1015.5 hPa | 0 mm | - | 538 W/m² | - |
| 1787659664 | 23.33° C | 43% | 1015.5 hPa | 0 mm | - | 652 W/m² | - |
| 1787659064 | 22.78° C | 45% | 1015.7 hPa | 0 mm | - | 673 W/m² | - |
| 1787658464 | 22.22° C | 46% | 1015.7 hPa | 0 mm | - | 617 W/m² | - |
| 1787657864 | 22.22° C | 44% | 1015.8 hPa | 0 mm | - | 524 W/m² | - |
| 1787657264 | 22.22° C | 46% | 1015.9 hPa | 0 mm | - | 638 W/m² | - |
| 1787656664 | 22.22° C | 47% | 1016.1 hPa | 0 mm | - | 592 W/m² | - |
| 1787656064 | 21.67° C | 48% | 1015.9 hPa | 0 mm | - | 459 W/m² | - |
| 1787655464 | 21.67° C | 47% | 1016 hPa | 0 mm | - | 403 W/m² | - |
| 1787654864 | 21.67° C | 49% | 1016 hPa | 0 mm | - | 353 W/m² | - |
| 1787654264 | 21.11° C | 51% | 1016.1 hPa | 0 mm | - | 547 W/m² | - |
| 1787653664 | 21.11° C | 51% | 1016.1 hPa | 0 mm | - | 568 W/m² | - |
| 1787653064 | 21.11° C | 52% | 1016.3 hPa | 0 mm | - | 626 W/m² | - |
| 1787652464 | 21.11° C | 53% | 1016.3 hPa | 0 mm | - | 606 W/m² | - |
| 1787651864 | 20.56° C | 52% | 1016.5 hPa | 0 mm | - | 596 W/m² | - |
| 1787651264 | 20.56° C | 53% | 1016.4 hPa | 0 mm | - | 543 W/m² | - |
| 1787650664 | 20.56° C | 55% | 1016.7 hPa | 0 mm | - | 538 W/m² | - |
| 1787650064 | 20° C | 56% | 1016.6 hPa | 0 mm | - | 306 W/m² | - |
| 1787649464 | 20° C | 57% | 1016.6 hPa | 0 mm | - | 285 W/m² | - |
| 1787648864 | 20° C | 59% | 1016.5 hPa | 0 mm | - | 547 W/m² | - |
| 1787648264 | 20° C | 58% | 1016.5 hPa | 0 mm | - | 513 W/m² | - |
* Rain latest hour (hover to see other rain measurements)
** Current wind speed in m/s (hover to see current wind gust speed)